Regional Weather Roundup
Issued by NWS

Home | Current Version | Previous Version | Graphics & Text | Print | Product List | Glossary On
Versions: 1 2 3 4 5 6 7 8 9 10 11 12 13 14 15 16 17 18 19 20 21 22 23 24 25 26 27 28 29 30 31 32 33 34 35 36 37 38 39 40 41 42 43 44 45 46 47 48 49 50
000
ASUS43 KMPX 310201
RWRMN
WEATHER ROUNDUP FOR MINNESOTA
NATIONAL WEATHER SERVICE TWIN CITIES/CHANHASSEN MN
900 PM CDT SAT JUL 30 2016


NOTE: "FAIR" INDICATES FEW OR NO CLOUDS BELOW 12,000 FEET WITH NO
SIGNIFICANT WEATHER AND/OR OBSTRUCTIONS TO VISIBILITY. N/A MEANS
CURRENT SKY AND/OR WEATHER CONDITIONS ARE NOT AVAILABLE.

MNZ060>063-068>070-310300-
   Twin Cities Metro

CITY           SKY/WX    TMP DP  RH WIND       PRES   REMARKS
TWIN CITIES    PTCLDY    75  63  66 SE7       29.97F
ST PAUL        PTCLDY    72  64  76 CALM      29.98S
CRYSTAL        CLEAR     75  60  59 SE5       29.96F
BLAINE         PTCLDY    73  63  68 SE5       29.98S
LAKEVILLE      CLEAR     70  64  83 CALM      29.98S
EDEN PRAIRIE   CLEAR     73  64  73 SE6       29.97S
LAKEVILLE      CLEAR     70  64  83 CALM      29.98S
SOUTH ST PAUL  CLEAR     74  63  67 CALM      29.98S
LAKE ELMO      FAIR      72  64  78 CALM      30.00S
$$
MNZ001>005-007-008-013>017-022>024-027-028-310300-
   Northwest Minnesota

CITY           SKY/WX    TMP DP  RH WIND       PRES   REMARKS
BEMIDJI        CLEAR     68  58  70 SE5       29.97S
HALLOCK        CLOUDY    73  64  73 S7        29.87F
ROSEAU         CLEAR     70  63  78 S6        29.92S
WARROAD        CLOUDY    73  66  78 S7        29.93S
THIEF RVR FALL CLOUDY    72  63  73 SE8       29.93F
CROOKSTON      CLOUDY    73  63  68 S8        29.91S
FOSSTON        CLEAR     70  59  68 SE5       29.95F
DETROIT LAKES  CLEAR     72  59  64 S5        29.96F
MOORHEAD       CLEAR     72  61  68 SE6       29.92S
PARK RAPIDS    CLEAR     74  58  57 SE6       29.96F
MAHNOMEN       FAIR      69  60  74 SE6       29.94S
$$
MNZ006-009>011-018-025>026-310300-
   North Central Minnesota

CITY           SKY/WX    TMP DP  RH WIND       PRES   REMARKS
BAUDETTE       CLEAR     68  59  73 S7        29.95S
FLAG ISLAND    PTCLDY    75  64  69 S10       29.92S
INTL FALLS     CLEAR     66  62  87 S3        29.98S
WASKISH        CLEAR     66  63  88 CALM      29.97S
BIG FORK       CLEAR     66  63  88 CALM      29.99S
LONGVILLE      CLEAR     64  61  88 CALM      29.98S
GRAND RAPIDS   CLEAR     65  60  84 S3        30.01R
CRANE LAKE     CLEAR     63  59  88 CALM      30.00S
ORR            CLEAR     64  59  82 CALM      29.97S
COOK           CLEAR     64  57  77 CALM      30.00S
WALKER         FAIR      70  57  64 CALM      29.97S
$$
MNZ012-019>021-037-310300-
   Northeast Minnesota

CITY           SKY/WX    TMP DP  RH WIND       PRES   REMARKS
DULUTH         PTCLDY    64  59  83 E6        30.02S
ELY            CLEAR     68  57  68 S5        30.02R
HIBBING        CLEAR     66  59  78 CALM      30.00S
EVELETH        CLEAR     67  58  74 S3        30.02S
DULUTH HARBOR  CLEAR     66  63  88 NE9       30.01F
TWO HARBORS    CLEAR     66  61  82 NE3       30.00F
SILVER BAY     CLEAR     63  59  88 CALM      30.02S
GRAND MARAIS     N/A     65  57  75 NE6       30.03S
G MARAIS ARPRT CLEAR     61  54  77 E3        30.08R
$$
MNZ029>031-032-039>041-046>048-054>057-064-310300-
   West Central Minnesota

CITY           SKY/WX    TMP DP  RH WIND       PRES   REMARKS
FERGUS FALLS   CLEAR     70  59  68 SE7       29.95R
WHEATON        CLEAR     70  63  78 E7        29.94S
MORRIS         CLEAR     66  61  82 E6        29.93F
ALEXANDRIA     CLEAR     71  58  63 SE6       29.98S
ELBOW LAKE     FAIR      69  60  73 E6        29.95F
WADENA         CLEAR     70  59  68 CALM      29.96S
GLENWOOD       CLEAR     66  61  82 SE3       29.97F
APPLETON       CLEAR     70  57  64 SE3       29.93S
BENSON         CLEAR     72  55  56 SE3       29.94F
ORTONVILLE     CLEAR     70  57  64 CALM      29.93S
MADISON        CLEAR     68  59  73 E6        29.93F
WILLMAR        FAIR      68  63  83 SE5       29.97S
$$
MNZ033>034-036-042>043-049>051-058-059-310300-
   Central Minnesota

CITY           SKY/WX    TMP DP  RH WIND       PRES   REMARKS
ST CLOUD       PTCLDY    72  66  81 E5        29.97S
SAUK CENTRE    FAIR      69  61  74 SE3       29.97S
PAYNESVILLE    CLEAR     71  58  62 SE3       29.97F
AITKIN         CLEAR     72  59  64 SE3       29.98S
PINE RIVER     CLEAR     70  63  78 CALM      30.01S
BRAINERD       CLEAR     71  63  75 SE6       29.98S
STAPLES        CLEAR     72  59  64 CALM      29.97S
LONG PRAIRIE   FAIR      68  61  77 CALM      29.98S
LITTLE FALLS   MOCLDY    70  63  78 SE5       29.98S
LITCHFIELD     CLEAR     72  61  68 CALM      29.98S
BUFFALO        PTCLDY    71  63  76 CALM      29.98F
MAPLE LAKE     CLEAR     73  67  81 CALM      29.99S
HUTCHINSON     CLOUDY    71  65  81 CALM      29.98S
$$
MNZ037-044-045-052-053-310300-
   East Central Minnesota

CITY           SKY/WX    TMP DP  RH WIND       PRES   REMARKS
PRINCETON      CLOUDY    73  63  68 SE5       29.98S
MORA           CLEAR     68  61  77 CALM      30.00S
CAMBRIDGE      PTCLDY    73  61  64 CALM      29.97S
RUSH CITY      RAIN      68  64  87 CALM      29.99S
MOOSE LAKE     CLEAR     66  63  88 CALM      29.99S
HINCKLEY       FAIR      66  64  94 CALM      29.99S
CLOQUET        PTCLDY    64  57  77 E3        30.02S
MCGREGOR       MOCLDY    70  64  83 SE3       30.00S
$$
MNZ071>073-080-081-089-090-097-098-310300-
   Southwest Minnesota

CITY           SKY/WX    TMP DP  RH WIND       PRES   REMARKS
MONTEVIDEO     CLEAR     70  61  73 S3        29.96S
GRANITE FALLS  CLEAR     73  61  65 E5        29.96S
CANBY          CLEAR     71  62  73 SE3       29.95R
MARSHALL       CLEAR     74  60  61 SE7       29.95S
REDWOOD FALLS  CLEAR     75  56  51 E3        29.95F
OLIVIA         CLEAR     72  59  64 CALM      29.96S
PIPESTONE      CLEAR     72  59  64 SE3       29.96S
WINDOM         CLEAR     72  63  73 SE6       29.97S
WORTHINGTON    CLEAR     70  62  76 SE5       29.97F
JACKSON        CLEAR     68  61  77 E6        29.98S
TRACY          CLEAR     71  63  76 SE3       29.96S
SLAYTON        CLEAR     68  63  82 CALM      29.98S
$$
MNZ065>067-074>077-082>085-091>093-310300-
   South Central Minnesota

CITY           SKY/WX    TMP DP  RH WIND       PRES   REMARKS
MANKATO        CLEAR     72  63  73 E6        29.98S
NEW ULM        CLEAR     72  61  68 SE3       29.97S
ST JAMES       CLEAR     66  61  82 CALM      29.97F
FAIRMONT       CLEAR     70  63  78 E6        29.97S
GLENCOE        CLEAR     74  69  85 E3        29.97S
FARIBAULT      PTCLDY    72  63  73 SE7       29.99S
OWATONNA       PTCLDY    70  64  83 SE6       30.00S
WASECA         PTCLDY    72  68  88 E7        30.00S
ALBERT LEA     MOCLDY    70  66  88 E6        30.00R
$$
MNZ078>079-086>088-094>096-310300-
   Southeast Minnesota

CITY           SKY/WX    TMP DP  RH WIND       PRES   REMARKS
ROCHESTER      LGT RAIN  69  64  84 SW6       30.02R
RED WING       CLEAR     70  66  88 CALM      29.98R
STANTON        MOCLDY    72  66  83 S5        29.97S
DODGE CENTER   PTCLDY    66  64  94 S8        30.01S
WINONA         PTCLDY    73  64  73 CALM      29.99S
AUSTIN         CLOUDY    68  64  88 E5        30.00S
PRESTON        PTCLDY    71  62  73 SE5       30.02R
$$
ABBREVIATIONS USED IN REMARKS
   TC - TEMPERATURES IN CELSIUS
  WCI - WIND CHILL INDEX
   HX - HEAT INDEX
  VSB - VISIBILITY
$$




USA.gov is the U.S. government's official web portal to all federal, state and local government web resources and services.